DW5750 Weather Reports


Display with metric or nautical units.
time (UTC)temp
F
wind
direction
speed
MPH
gust
MPH
rain 1hr
in
rain 24hr
in
rain mn
in
humidity
%
barometer
mb
20260506061529 77 296 1.0 4.0 0.00 0.03 0.00 100 1011.5
20260506044550 78 297 2.0 5.0 0.00 0.04 0.03 100 1011.7
20260506043022 78 288 0.0 4.0 0.00 0.04 0.03 99 1011.7
20260506041521 79 322 0.0 2.0 0.00 0.04 0.03 98 1011.6
20260506040022 79 243 1.0 6.0 0.00 0.04 0.03 98 1011.5
20260506034538 79 240 5.0 8.0 0.00 0.04 0.03 98 1011.4
20260506033017 79 238 4.0 8.0 0.02 0.04 0.03 99 1011.2
20260506031517 79 251 2.0 5.0 0.02 0.04 0.03 99 1011.1
20260506030015 79 238 2.0 7.0 0.02 0.04 0.03 99 1011.1
20260506024514 80 272 0.0 3.0 0.02 0.04 0.03 98 1010.9
20260506023013 80 250 1.0 6.0 0.01 0.02 0.02 97 1010.5
20260506021512 80 245 0.0 6.0 0.00 0.02 0.01 96 1010.2
20260506020011 80 231 4.0 8.0 0.00 0.02 0.01 96 1010.2
20260506014512 80 222 5.0 10.0 0.00 0.02 0.01 96 1010.0
20260506013011 80 200 3.0 8.0 0.00 0.02 0.01 95 1009.9
20260506011514 80 209 6.0 10.0 0.00 0.02 0.01 95 1009.6
20260506010009 80 168 7.0 13.0 0.00 0.02 0.01 95 1009.4
20260506004518 80 205 3.0 11.0 0.00 0.02 0.01 96 1009.2
20260506003010 80 252 1.0 6.0 0.00 0.02 0.01 95 1009.0
20260506001506 80 249 3.0 7.0 0.00 0.02 0.01 94 1008.8
20260506000006 80 247 4.0 7.0 0.00 0.02 0.01 94 1008.6
20260505234509 80 240 0.0 6.0 0.00 0.02 0.01 94 1008.3
20260505233008 81 211 3.0 8.0 0.00 0.02 0.01 94 1008.2
20260505231510 81 177 2.0 8.0 0.00 0.02 0.01 94 1008.2
20260505230007 81 176 2.0 7.0 0.00 0.02 0.01 93 1008.0
20260505224503 81 143 4.0 8.0 0.00 0.02 0.01 92 1007.9
20260505223003 82 193 5.0 8.0 0.00 0.02 0.01 91 1007.8
20260505221502 82 161 2.0 8.0 0.00 0.02 0.01 91 1007.8
20260505220003 83 291 1.0 7.0 0.00 0.02 0.01 89 1007.8
20260505214606 83 290 3.0 8.0 0.00 0.02 0.01 90 1007.8
20260505213105 82 238 4.0 11.0 0.00 0.02 0.01 90 1007.8
20260505211603 82 258 4.0 9.0 0.00 0.02 0.01 89 1007.8
20260505210058 82 241 4.0 9.0 0.00 0.02 0.01 91 1007.8
20260505204600 83 262 5.0 10.0 0.00 0.02 0.01 92 1007.8
20260505203056 82 194 6.0 11.0 0.00 0.02 0.01 91 1007.7
20260505201553 83 252 5.0 11.0 0.00 0.02 0.01 91 1007.9
20260505200051 83 207 9.0 13.0 0.00 0.02 0.01 90 1008.2
20260505194550 83 213 7.0 12.0 0.00 0.02 0.01 89 1008.4
20260505193049 83 262 7.0 13.0 0.00 0.02 0.01 90 1008.6
20260505191554 82 188 7.0 14.0 0.00 0.02 0.01 91 1008.9
20260505190046 83 230 8.0 12.0 0.00 0.02 0.01 90 1009.2
20260505184543 82 210 9.0 13.0 0.00 0.02 0.01 91 1009.6
20260505183041 82 202 8.0 14.0 0.00 0.02 0.01 90 1009.9
20260505181540 83 165 6.0 11.0 0.00 0.02 0.01 90 1010.1
20260505180048 83 205 7.0 12.0 0.00 0.02 0.01 90 1010.3
20260505174551 82 224 7.0 13.0 0.00 0.02 0.01 90 1010.4
20260505173037 82 207 7.0 12.0 0.00 0.02 0.01 90 1010.5
20260505171537 82 172 5.0 12.0 0.00 0.02 0.01 91 1010.8
20260505170041 82 184 5.0 9.0 0.00 0.02 0.01 92 1010.8
20260505164539 82 218 5.0 13.0 0.00 0.02 0.01 91 1010.8
20260505163039 81 250 5.0 10.0 0.00 0.02 0.01 92 1010.8
20260505161533 82 199 6.0 10.0 0.00 0.02 0.01 91 1011.1